Location: Newark
(52.8300°N, 8.0000°E)
Time: 21:28:11
(UTC+00:00)

STARLINK-1093 - Pass Details

Date: 31 January 2020
Orbit: 348 x 351 km, 53.0° (Epoch: 18 February)

Event Time Altitude Azimuth Distance (km) Brightness Sun altitude
Rises 16:57:54 0° 283° (WNW) 2,167 7.8 -7.4°
Reaches altitude 10° 16:59:58 10° 277° (W) 1,322 6.8 -7.7°
Maximum altitude 17:02:47 41° 204° (SSW) 522 3.9 -8.1°
Drops below altitude 10° 17:05:34 10° 132° (SE) 1,318 5.3 -8.5°
Enters shadow 17:07:10 - 126° (SE) 1,963 6.1 -8.8°
